Location: Nitra
(0.0000°N, 18.0833°E)
Time: 00:04:29
(UTC+02:00)

Hubble Space Telescope - Pass Details

Date: 04 February 2023
Orbit: 527 x 530 km, 28.5° (Epoch: 28 March)

Event Time Altitude Azimuth Distance (km) Brightness Sun altitude
Rises 19:17:10 0° 240° (WSW) 2,646 5.8 -18.1°
Reaches altitude 10° 19:19:25 10° 240° (WSW) 1,756 4.6 -18.7°
Maximum altitude 19:23:28 87° 325° (NW) 526 0.6 -19.6°
Enters shadow 19:24:16 57° 55° (NE) 617 0.7 -19.8°
